Regional Weather Roundup
Issued by NWS

Home | Current Version | Previous Version | Graphics & Text | Print | Product List | Glossary On
Versions: 1 2 3 4 5 6 7 8 9 10 11 12 13 14 15 16 17 18 19 20 21 22 23 24 25 26 27 28 29 30 31 32 33 34 35 36 37 38 39 40 41 42 43 44 45 46 47 48 49 50
790
ASUS45 KBOU 220910
RWRCO

WEATHER ROUNDUP FOR COLORADO
NATIONAL WEATHER SERVICE DENVER/BOULDER CO
200 AM MST THU FEB 22 2018

NOTE: "FAIR" INDICATES FEW OR NO CLOUDS BELOW 12000 FEET WITH NO
SIGNIFICANT WEATHER AND/OR OBSTRUCTIONS TO VISIBILITY.

COZ001>005-013-030-031-221000-
...NORTHWEST COLORADO...

CITY           SKY/WX    TMP DP  RH WIND       PRES   REMARKS
CRAIG          CLOUDY    13   6  74 CALM      30.00F
HAYDEN         FLURRIES  12   8  84 E6        29.99F WCI   3
MEEKER         LGT SNOW  21  18  88 CALM      29.98S FOG
RANGELY        LGT SNOW  20  17  87 CALM      30.03F
RABBIT EARS PA LGT SNOW   7   5  92 CALM      29.84F
STEAMBOAT SPGS CLOUDY    11   9  89 CALM      29.96F
WALDEN         FAIR       3  -2  78 SE7       29.93F WCI  -9
$$

COZ006>008-011-221000-
...WEST CENTRAL VALLEYS...

CITY           SKY/WX    TMP DP  RH WIND       PRES   REMARKS
GRAND JUNCTION LGT SNOW  27  27 100 CALM      30.02S FOG
MONTROSE       LGT SNOW  24  23  96 CALM      30.02F FOG
EAGLE          CLOUDY    18  10  71 E7        29.99S WCI   9
RIFLE          LGT SNOW  24  22  91 CALM      30.01S FOG
DELTA          LGT SNOW  29  28  93 E3        30.03S
NUCLA          FOG       27  23  86 NW3       30.02F VSB 1/2
$$

COZ017>023-064>068-221000-
...SOUTHWEST COLORADO...

CITY           SKY/WX    TMP DP  RH WIND       PRES   REMARKS
DURANGO        CLOUDY    28  28 100 CALM      29.95F
CORTEZ         FAIR      23  22  96 CALM      29.98F
PAGOSA SPRINGS FLURRIES  27  26  96 CALM      29.95F
TELLURIDE      LGT SNOW  20  19  93 W3        29.93R
WOLF CREEK PAS CLOUDY    10  10 100 SW24G36   29.91F WCI -10
$$

COZ009-010-012-014-032>034-037-058>063-221000-
...CENTRAL COLORADO...

CITY           SKY/WX    TMP DP  RH WIND       PRES   REMARKS
ASPEN          LGT SNOW  17  11  77 CALM      29.91R
BUENA VISTA    LGT SNOW  18  15  88 SE3       29.95S
COPPER MTN     CLOUDY    14   7  73 SE9       29.84F WCI   2
BERTHOUD PASS  CLOUDY     9  -4  56 S10G18    29.84S WCI  -6
COTTONWOOD PAS LGT SNOW  19  18  93 CALM      29.89F
GUNNISON       NOT AVBL
GRANBY         FAIR       5  -1  79 CALM      29.93F
KREMMLING      FAIR       9   1  72 CALM      29.97F
LEADVILLE      LGT SNOW  11   7  84 CALM      29.86F FOG
MONARCH PASS   CLOUDY    12  10  92 SW22G28   29.96F FOG     WCI  -7
SALIDA         CLOUDY    19  16  88 SE3       30.04F
SUNLIGHT       LGT SNOW  10   7  85 SW8       29.91R VSB 1   WCI  -1
WILKERSON PASS LGT SNOW  14  10  85 SW6       29.90F WCI   5
$$

COZ069>075-221000-
...SAN LUIS VALLEY/SANGRE DE CRISTO MOUNTAINS...

CITY           SKY/WX    TMP DP  RH WIND       PRES   REMARKS
ALAMOSA        FAIR      26  21  81 S15       29.93F WCI  14
DEL NORTE      FLURRIES  18  16  92 CALM      29.92F
LA VETA PASS   CLOUDY    21  18  86 S21G41    30.02S WCI   6
SAGUACHE       NOT AVBL
$$

COZ035-036-038>040-221000-
...NORTHERN COLORADO FRONT RANGE...

CITY           SKY/WX    TMP DP  RH WIND       PRES   REMARKS
DENVER INTL AP MOCLDY    16   8  71 W6        30.03F WCI   7
AURORA         CLOUDY    13   8  82 CALM      30.03F
FRONT RANGE AP CLOUDY    17  13  82 S5        30.04F WCI  10
ERIE MUNI ARPT FAIR       8   5  86 CALM      30.12S
BOULDER MUN AP FAIR      16  12  86 CALM      30.05F
CENTENNIAL     CLOUDY    13  10  88 S7        30.01F WCI   3
BROOMFIELD     NOT AVBL
FORT COLLINS   FAIR       9   5  84 N6        30.08F WCI  -1
LONGMONT       FAIR      10   6  83 CALM      30.09F
$$

COZ041-046-047-076>085-087-088-221000-
...PIKES PEAK/PALMER DIVIDE AND SOUTHERN FOOTHILLS...

CITY           SKY/WX    TMP DP  RH WIND       PRES   REMARKS
COLO. SPRINGS  CLOUDY    14  13  95 SW3       30.02F
A. F. ACADEMY  FLURRIES  12   9  85 CALM      29.98F
SCHRIEVER AFB  NOT AVBL
CHEYENNE MTN   MOCLDY    10   9  92 CALM      29.91F
ELLICOTT       CLOUDY   N/A N/A N/A SE5         N/A
FALCON         FLURRIES  13  11  92 MISG      29.99F
FORT CARSON    FLURRIES  16  12  86 CALM      30.02F
LIMON          CLOUDY    15  13  91 SE10      30.07F WCI   2
MONUMENT HILL  FAIR       9   5  85 S7        29.98F WCI  -3
CANON CITY     CLEAR     16  14  93 E3        30.06S
WALSENBURG     NOT AVBL
TRINIDAD       FAIR      13  10  88 S6        30.03F WCI   4
$$

COZ042>045-048>051-090-091-221000-
...NORTHEAST COLORADO...

CITY           SKY/WX    TMP DP  RH WIND       PRES   REMARKS
GREELEY ARPT   FAIR       3   0  87 N5        30.10F WCI  -6
AKRON          CLOUDY    19  17  92 SE13      30.10F WCI   6
BURLINGTON     FAIR      10   3  73 SE7       30.16F WCI  -1
WRAY           FAIR      19  10  68 SE7       30.21F WCI  10
YUMA           CLOUDY    19  12  73 SE9       30.16F WCI   9
STERLING       CLOUDY    23  19  86 S8        30.13F WCI  14
HOLYOKE        CLOUDY    25  12  58 SE10      30.20F WCI  15
FORT MORGAN    MOCLDY    16  11  82 E3        30.11F
$$

COZ086-089-092>099-221000-
...SOUTHEAST COLORADO...

CITY           SKY/WX    TMP DP  RH WIND       PRES   REMARKS
PUEBLO         CLOUDY    20  15  81 CALM      30.09F
LA JUNTA       FAIR      17  13  84 N3        30.10F
LAMAR          FAIR      17   6  62 E9        30.12F WCI   6
SPRINGFIELD      N/A     15  11  83 S8        30.13R WCI   4
$$




USA.gov is the U.S. government's official web portal to all federal, state and local government web resources and services.